Regional Weather Roundup
Issued by NWS New Orleans/Baton Rouge, LA

Home | Current Version | Previous Version | Text Only | Print | Product List | Glossary On
Versions: 1 2 3 4 5 6 7 8 9 10 11 12 13 14 15 16 17 18 19 20 21 22 23 24 25 26 27 28 29 30 31 32 33 34 35 36 37 38 39 40 41 42 43 44 45 46 47 48 49 50
000
ASUS44 KLIX 290910
RWRLIX
NEW ORLEANS REGIONAL WEATHER ROUNDUP
NATIONAL WEATHER SERVICE NEW ORLEANS LA
400 AM CDT TUE JUL 29 2014

NOTE: "FAIR" INDICATES FEW OR NO CLOUDS BELOW 12,000 FEET WITH NO
      SIGNIFICANT WEATHER AND/OR OBSTRUCTIONS TO VISIBILITY.
      SKY/WX - SKY CONDITION AND SIGNIFICANT WEATHER.
      TMP - AIR TEMPERATURE.     DP    - DEWPOINT TEMPERATURE.
      RH  - RELATIVE HUMIDITY.   PRES  - PRESSURE.
      HI  - HEAT INDEX.          WCI   - WIND CHILL INDEX.

*  THESE STATIONS ARE NOT NWS OR FAA STATIONS AND ARE NOT UNDER
   NWS QUALITY CONTROL.

LAZ038-040-048-061>063-065>067-069-291000-
SOUTHEAST LOUISIANA

CITY           SKY/WX    TMP DP  RH WIND       PRES   REMARKS
N.O. AUDUBON     N/A     82  70  67 MISG        N/A
N.O. INTL ARPT MOCLDY    81  69  67 NE14      29.98F
N.O. LAKEFRONT PTCLDY    82  70  66 NE16      29.98F
N.O. DOWNTOWN*   N/A     82  66  57 NE6       29.98F
SLIDELL        CLEAR     74  71  91 CALM      29.98F
BATON ROUGE    PTCLDY    75  72  90 NW3       30.02R
BOOTHVILLE     CLOUDY    80  76  87 NW7       29.97F
BELLE CHASSE   PTCLDY    79  70  74 NE6       29.97F
BOGALUSA*        N/A     72  68  86 CALM      30.00F
GALLIANO*      NOT AVBL
NEW ROADS*     PTSUNNY   75  72  91 N5        30.02S
GONZALES*      PTSUNNY   76  76 100 NW3       30.00R
HAMMOND*       PTCLDY    75  70  83 CALM      30.02R
HOUMA*         MOCLDY    77  71  81 NW3       29.99R
PORT FOURCHON* PTSUNNY   82  75  78 NW7       29.99F

$$

MSZ070-080>082-291000-
SOUTHERN MISSISSIPPI

CITY           SKY/WX    TMP DP  RH WIND       PRES   REMARKS
MCCOMB         CLEAR     72  66  81 N6        30.02R
GULFPORT       CLEAR     79  67  66 N5        29.97S
BILOXI         CLEAR     76  68  76 NE5       29.97F
PASCAGOULA     CLEAR     73  69  87 N3        29.97F

$$

COASTAL OBSERVATIONS
LAKE AND NEARSHORE STATIONS

STATION/POSITION TIME  TEMP    WIND        PRES    WAVE
                       AIR SEA DIR/SP/G            HT/PER
                 (UTC) (F)     (DEG/KT/KT) (MB)    (FT/S)
PASCAGOULA       0900   78      20/  8/ 11 1014.2
WAVELAND YACHT   0900   79      30/ 10/ 13 1014.5
GRAND ISLE       0900   81 87   50/ 10/ 16 1015.8
SOUTHWEST PASS   0900   84 84  310/  8/ 19 1015.3
NEW CANAL        0900   82 84   40/ 15/ 16 1015.5
SHELL BEACH      0900   82 82   30/ 15/ 17 1014.8

OFFSHORE STATIONS

STATION/POSITION TIME  TEMP    WIND        PRES    WAVE
                       AIR SEA DIR/SP/G            HT/PER
                 (UTC) (F)     (DEG/KT/KT) (MB)    (FT/S)
64 S DAUPHIN ISL 0816   82 86  320/ 10/ 12 1014.1

$$



USA.gov is the U.S. government's official web portal to all federal, state and local government web resources and services.